Superbird A

operational
NORAD ID: 20040 Int'l Des: 1989-041 Owner: SCC Country: J
HEOCIRCULAR

关于 Superbird A

正在加载描述...

实时位置

正在加载3D地球...

即将过境

高度历史

Altitude vs Time

uPlot chart will show altitude changes over time

两行轨道根数

1 20040U 89041A 26060.88209909 .00000088 00000-0 00000-0 0 9993
2 20040 12.3002 333.0339 0004011 56.5161 123.4059 0.99748380133391
Epoch: Mar 1, 2026 • Age: 65 hours

当前状态

高度 35922.3 km
速度 3.07 km/s
星下点 11.62°N, 32.79°E
发射日期 Jun 5, 1989
运行时间 36.7 years
类型 other

技术详情

分类 Payload
质量 2489.00 kg
干质量 1220.00 kg
总质量 2489.00 kg
长度 2.40 m
直径 2.20 m
跨度 20.30 m
形状 Box + 2 Pan
制造商 FORDA
平台类型 FS-1300
阶段状态 In Orbit
所有者/国家 SCC/J

大型星座

Loading constellations...